• In Russia
  • List of Countries
  • For 7 days
  • Water Temperature
  • Satellite Maps
  • Weather Map
  • Weather Widgets
  • user-avatar
    Login

    Hourly Weather Gjirokaster

    Today, 23 January, Tuesday

    Time Temperature Precipitation Wind Pressure Humidity
    00:00 -4°C° 0 mm 2 mps 647 mmHg 71%
    01:00 -4°C° 0 mm 2 mps 647 mmHg 70%
    02:00 -4°C° 0 mm 2 mps 647 mmHg 68%
    03:00 -4°C° 0 mm 2 mps 647 mmHg 66%
    04:00 -4°C° 0 mm 2 mps 648 mmHg 64%
    05:00 -4°C° 0 mm 2 mps 648 mmHg 62%
    06:00 -4°C° 0 mm 2 mps 648 mmHg 61%
    07:00 -4°C° 0 mm 2 mps 648 mmHg 59%
    08:00 0°C° 0 mm 1 mps 649 mmHg 55%
    09:00 +1°C° 0 mm 1 mps 650 mmHg 52%
    10:00 +3°C° 0 mm 1 mps 650 mmHg 49%
    11:00 +3°C° 0.1 mm 1 mps 651 mmHg 51%
    12:00 +3°C° 0.1 mm 1 mps 651 mmHg 53%
    13:00 +3°C° 0.1 mm 1 mps 651 mmHg 56%
    14:00 +3°C° 0.1 mm 1 mps 651 mmHg 60%
    15:00 +2°C° 0.1 mm 1 mps 651 mmHg 64%
    16:00 +2°C° 0.1 mm 1 mps 651 mmHg 68%
    17:00 +1°C° 0 mm 2 mps 652 mmHg 69%
    18:00 -1°C° 0 mm 2 mps 652 mmHg 70%
    19:00 -2°C° 0 mm 2 mps 652 mmHg 72%
    20:00 -2°C° 0 mm 2 mps 652 mmHg 72%
    21:00 -2°C° 0 mm 2 mps 653 mmHg 72%
    22:00 -2°C° 0 mm 2 mps 653 mmHg 73%
    23:00 -3°C° 0 mm 2 mps 653 mmHg 73%

    Tomorrow, 24 January, Wednesday

    Time Temperature Precipitation Wind Pressure Humidity
    00:00 -3°C° 0 mm 2 mps 653 mmHg 73%
    01:00 -4°C° 0 mm 2 mps 653 mmHg 73%
    02:00 -4°C° 0 mm 2 mps 654 mmHg 73%
    03:00 -5°C° 0 mm 3 mps 654 mmHg 72%
    04:00 -6°C° 0 mm 3 mps 654 mmHg 71%
    05:00 -6°C° 0 mm 3 mps 654 mmHg 71%
    06:00 -6°C° 0 mm 3 mps 654 mmHg 71%
    07:00 -6°C° 0 mm 3 mps 655 mmHg 71%
    08:00 -5°C° 0 mm 3 mps 656 mmHg 65%
    09:00 -2°C° 0 mm 2 mps 657 mmHg 60%
    10:00 +1°C° 0 mm 2 mps 657 mmHg 54%
    11:00 +1°C° 0 mm 2 mps 657 mmHg 51%
    12:00 +2°C° 0 mm 2 mps 657 mmHg 48%
    13:00 +4°C° 0 mm 1 mps 658 mmHg 45%
    14:00 +3°C° 0 mm 1 mps 658 mmHg 49%
    15:00 +3°C° 0 mm 1 mps 658 mmHg 53%
    16:00 +3°C° 0 mm 1 mps 658 mmHg 57%
    17:00 +1°C° 0 mm 1 mps 658 mmHg 59%
    18:00 -2°C° 0 mm 2 mps 658 mmHg 62%
    19:00 -3°C° 0 mm 2 mps 657 mmHg 64%
    20:00 -4°C° 0 mm 2 mps 658 mmHg 65%
    21:00 -4°C° 0 mm 2 mps 658 mmHg 66%
    22:00 -4°C° 0 mm 2 mps 658 mmHg 66%
    23:00 -4°C° 0 mm 2 mps 658 mmHg 66%

    Day after tomorrow, 25 January, Thursday

    Time Temperature Precipitation Wind Pressure Humidity
    00:00 -5°C° 0 mm 2 mps 658 mmHg 65%
    01:00 -5°C° 0 mm 2 mps 658 mmHg 65%
    02:00 -5°C° 0 mm 2 mps 657 mmHg 64%
    03:00 -5°C° 0 mm 2 mps 657 mmHg 63%
    04:00 -5°C° 0 mm 2 mps 657 mmHg 62%
    05:00 -5°C° 0 mm 2 mps 657 mmHg 61%
    06:00 -5°C° 0 mm 2 mps 657 mmHg 59%
    07:00 -5°C° 0 mm 2 mps 657 mmHg 58%
    08:00 -3°C° 0 mm 2 mps 657 mmHg 53%
    09:00 +1°C° 0 mm 1 mps 658 mmHg 49%
    10:00 +2°C° 0 mm 1 mps 658 mmHg 44%
    11:00 +3°C° 0 mm 1 mps 658 mmHg 43%
    12:00 +4°C° 0 mm 1 mps 658 mmHg 43%
    13:00 +5°C° 0 mm 1 mps 658 mmHg 43%
    14:00 +4°C° 0 mm 1 mps 658 mmHg 49%
    15:00 +4°C° 0 mm 1 mps 657 mmHg 55%
    16:00 +3°C° 0 mm 1 mps 657 mmHg 61%
    17:00 +2°C° 0 mm 1 mps 656 mmHg 65%
    18:00 +1°C° 0 mm 1 mps 656 mmHg 68%
    19:00 -1°C° 0 mm 0 mps 656 mmHg 72%
    20:00 -1°C° 0 mm 1 mps 656 mmHg 72%
    21:00 -1°C° 0 mm 1 mps 656 mmHg 71%
    22:00 -1°C° 0 mm 1 mps 656 mmHg 71%
    23:00 -1°C° 0 mm 1 mps 656 mmHg 70%

    26 January, Friday

    Time Temperature Precipitation Wind Pressure Humidity
    00:00 -1°C° 0 mm 1 mps 655 mmHg 69%
    01:00 -1°C° 0 mm 1 mps 655 mmHg 68%
    02:00 -1°C° 0 mm 1 mps 655 mmHg 67%
    03:00 -3°C° 0 mm 2 mps 655 mmHg 65%
    04:00 -3°C° 0 mm 2 mps 655 mmHg 64%
    05:00 -3°C° 0 mm 2 mps 655 mmHg 63%
    06:00 -4°C° 0 mm 2 mps 655 mmHg 62%
    07:00 -4°C° 0 mm 2 mps 655 mmHg 61%
    08:00 -2°C° 0 mm 2 mps 655 mmHg 57%
    09:00 +1°C° 0 mm 2 mps 656 mmHg 54%
    10:00 +3°C° 0 mm 2 mps 656 mmHg 50%
    11:00 +4°C° 0 mm 2 mps 656 mmHg 51%
    12:00 +4°C° 0 mm 2 mps 656 mmHg 51%
    13:00 +5°C° 0 mm 2 mps 656 mmHg 51%
    14:00 +4°C° 0 mm 2 mps 655 mmHg 57%
    15:00 +4°C° 0 mm 2 mps 655 mmHg 62%
    16:00 +3°C° 0 mm 2 mps 655 mmHg 67%
    17:00 +2°C° 0 mm 2 mps 655 mmHg 71%
    18:00 +1°C° 0 mm 2 mps 655 mmHg 75%
    19:00 0°C° 0 mm 1 mps 655 mmHg 79%
    20:00 -2°C° 0 mm 2 mps 655 mmHg 79%
    21:00 -2°C° 0 mm 2 mps 655 mmHg 79%
    22:00 -2°C° 0 mm 2 mps 655 mmHg 79%
    23:00 -2°C° 0 mm 2 mps 655 mmHg 78%

    27 January, Saturday

    Time Temperature Precipitation Wind Pressure Humidity
    00:00 -3°C° 0 mm 2 mps 655 mmHg 77%
    01:00 -3°C° 0 mm 2 mps 655 mmHg 76%
    02:00 -3°C° 0 mm 2 mps 655 mmHg 75%
    03:00 -3°C° 0 mm 2 mps 655 mmHg 73%
    04:00 -3°C° 0 mm 2 mps 654 mmHg 72%
    05:00 -3°C° 0 mm 2 mps 655 mmHg 71%
    06:00 -3°C° 0 mm 2 mps 655 mmHg 70%
    07:00 -3°C° 0 mm 2 mps 655 mmHg 69%
    08:00 -1°C° 0 mm 2 mps 655 mmHg 63%
    09:00 +2°C° 0 mm 2 mps 656 mmHg 57%
    10:00 +4°C° 0 mm 2 mps 657 mmHg 52%
    11:00 +5°C° 0 mm 2 mps 657 mmHg 50%
    12:00 +5°C° 0 mm 2 mps 657 mmHg 47%
    13:00 +6°C° 0 mm 2 mps 657 mmHg 45%
    14:00 +7°C° 0 mm 1 mps 657 mmHg 50%
    15:00 +6°C° 0 mm 1 mps 657 mmHg 55%
    16:00 +5°C° 0 mm 1 mps 656 mmHg 60%
    17:00 +4°C° 0 mm 1 mps 656 mmHg 63%
    18:00 +3°C° 0 mm 1 mps 656 mmHg 66%
    19:00 +2°C° 0 mm 1 mps 656 mmHg 69%
    20:00 +1°C° 0 mm 1 mps 657 mmHg 69%
    21:00 +1°C° 0 mm 1 mps 657 mmHg 69%
    22:00 +1°C° 0 mm 1 mps 657 mmHg 69%
    23:00 +1°C° 0 mm 1 mps 657 mmHg 69%

    28 January, Sunday

    Time Temperature Precipitation Wind Pressure Humidity
    00:00 +1°C° 0 mm 1 mps 657 mmHg 68%
    01:00 0°C° 0 mm 1 mps 657 mmHg 68%
    02:00 0°C° 0 mm 1 mps 657 mmHg 67%
    03:00 0°C° 0 mm 1 mps 657 mmHg 67%
    04:00 0°C° 0 mm 1 mps 657 mmHg 66%
    05:00 0°C° 0 mm 1 mps 657 mmHg 66%
    06:00 0°C° 0 mm 1 mps 657 mmHg 66%
    07:00 0°C° 0 mm 1 mps 657 mmHg 65%
    08:00 +2°C° 0 mm 1 mps 658 mmHg 60%
    09:00 +4°C° 0 mm 1 mps 659 mmHg 54%
    10:00 +6°C° 0 mm 1 mps 659 mmHg 49%
    11:00 +7°C° 0 mm 1 mps 659 mmHg 47%
    12:00 +7°C° 0 mm 2 mps 659 mmHg 45%
    13:00 +8°C° 0 mm 2 mps 659 mmHg 43%
    14:00 +7°C° 0 mm 2 mps 659 mmHg 49%
    15:00 +5°C° 0 mm 3 mps 659 mmHg 54%
    16:00 +5°C° 0 mm 3 mps 659 mmHg 59%
    17:00 +3°C° 0 mm 3 mps 658 mmHg 62%
    18:00 +2°C° 0 mm 3 mps 658 mmHg 65%
    19:00 0°C° 0 mm 3 mps 658 mmHg 69%
    20:00 0°C° 0 mm 3 mps 658 mmHg 68%
    21:00 0°C° 0 mm 3 mps 658 mmHg 68%
    22:00 -1°C° 0 mm 3 mps 659 mmHg 67%
    23:00 -1°C° 0 mm 3 mps 659 mmHg 67%
    Show more